| time (UTC) | temp C | wind direction | speed KPH | gust KPH | rain 1hr cm | rain 24hr cm | rain mn cm | humidity % | barometer mb |
| 20260510223020 | 33 | 312 | 0.0 | 0.0 | 0.00 | 0.48 | 0.30 | 46 | 1012.9 |
| 20260510221529 | 32 | 312 | 0.0 | 0.0 | 0.00 | 0.48 | 0.30 | 46 | 1012.9 |
| 20260510220020 | 32 | 312 | 0.0 | 0.0 | 0.00 | 0.48 | 0.30 | 46 | 1012.8 |
| 20260510214519 | 32 | 312 | 0.0 | 0.0 | 0.00 | 0.71 | 0.30 | 46 | 1012.7 |
| 20260510213019 | 32 | 312 | 0.0 | 0.0 | 0.00 | 0.71 | 0.30 | 46 | 1012.4 |
| 20260510211518 | 32 | 312 | 0.0 | 0.0 | 0.00 | 0.71 | 0.30 | 46 | 1012.2 |
| 20260510210021 | 31 | 312 | 0.0 | 0.0 | 0.00 | 0.71 | 0.30 | 46 | 1012.1 |
| 20260510204517 | 31 | 313 | 0.0 | 0.0 | 0.00 | 0.71 | 0.30 | 46 | 1012.1 |
| 20260510203016 | 31 | 312 | 0.0 | 3.2 | 0.00 | 0.71 | 0.30 | 46 | 1011.9 |
| 20260510201516 | 32 | 312 | 0.0 | 3.2 | 0.00 | 0.71 | 0.30 | 46 | 1011.9 |
| 20260510200016 | 32 | 296 | 0.0 | 1.6 | 0.08 | 0.71 | 0.30 | 46 | 1012.0 |
| 20260510194522 | 31 | 297 | 0.0 | 1.6 | 0.30 | 0.71 | 0.30 | 46 | 1012.1 |
| 20260510193015 | 30 | 296 | 0.0 | 1.6 | 0.30 | 0.71 | 0.30 | 46 | 1012.3 |
| 20260510191514 | 26 | 298 | 0.0 | 1.6 | 0.30 | 0.71 | 0.30 | 46 | 1012.2 |
| 20260510190014 | 21 | 298 | 0.0 | 3.2 | 0.20 | 0.64 | 0.20 | 46 | 1012.2 |
| 20260510184524 | 20 | 299 | 0.0 | 6.4 | 0.00 | 0.56 | 0.00 | 46 | 1012.1 |
| 20260510183007 | 21 | 298 | 0.0 | 4.8 | 0.00 | 0.56 | 0.00 | 46 | 1012.2 |
| 20260510181506 | 21 | 297 | 0.0 | 3.2 | 0.00 | 0.56 | 0.00 | 46 | 1012.3 |
| 20260510180005 | 21 | 298 | 0.0 | 3.2 | 0.00 | 0.56 | 0.00 | 46 | 1012.4 |
| 20260510174502 | 22 | 297 | 0.0 | 4.8 | 0.00 | 0.56 | 0.00 | 46 | 1012.3 |
| 20260510173109 | 22 | 300 | 0.0 | 1.6 | 0.00 | 0.56 | 0.00 | 46 | 1012.3 |
| 20260510171559 | 28 | 300 | 0.0 | 3.2 | 0.00 | 0.56 | 0.00 | 46 | 1012.3 |
| 20260510170059 | 35 | 302 | 0.0 | 1.6 | 0.00 | 0.56 | 0.00 | 46 | 1012.4 |
| 20260510164554 | 33 | 302 | 0.0 | 1.6 | 0.00 | 0.56 | 0.00 | 46 | 1012.5 |
| 20260510163049 | 31 | 302 | 0.0 | 4.8 | 0.00 | 0.56 | 0.00 | 46 | 1012.7 |
| 20260510161545 | 30 | 200 | 0.0 | 1.6 | 0.00 | 0.56 | 0.00 | 46 | 1012.8 |
| 20260510160057 | 29 | 199 | 0.0 | 1.6 | 0.00 | 0.56 | 0.00 | 46 | 1012.9 |
| 20260510154539 | 28 | 196 | 0.0 | 1.6 | 0.00 | 0.56 | 0.00 | 46 | 1012.9 |
| 20260510153038 | 27 | 143 | 0.0 | 0.0 | 0.00 | 0.56 | 0.00 | 46 | 1013.1 |
| 20260510151534 | 27 | 143 | 0.0 | 0.0 | 0.00 | 0.56 | 0.00 | 46 | 1012.9 |
| 20260510150030 | 26 | 140 | 0.0 | 0.0 | 0.00 | 0.56 | 0.00 | 46 | 1013.0 |
| 20260510144528 | 26 | 140 | 0.0 | 0.0 | 0.00 | 0.56 | 0.00 | 46 | 1013.0 |
| 20260510143030 | 26 | 140 | 0.0 | 0.0 | 0.00 | 0.56 | 0.00 | 46 | 1012.9 |
| 20260510141524 | 26 | 140 | 0.0 | 1.6 | 0.00 | 0.56 | 0.00 | 46 | 1013.0 |
| 20260510140022 | 26 | 140 | 0.0 | 0.0 | 0.00 | 0.56 | 0.00 | 46 | 1012.8 |
| 20260510134523 | 26 | 140 | 0.0 | 0.0 | 0.00 | 0.56 | 0.00 | 46 | 1012.8 |
| 20260510133021 | 25 | 136 | 0.0 | 0.0 | 0.00 | 0.56 | 0.00 | 46 | 1012.8 |
| 20260510131517 | 25 | 136 | 0.0 | 0.0 | 0.00 | 0.56 | 0.00 | 46 | 1012.7 |
| 20260510130016 | 25 | 136 | 0.0 | 0.0 | 0.00 | 0.56 | 0.00 | 46 | 1012.3 |
| 20260510124514 | 25 | 136 | 0.0 | 0.0 | 0.00 | 0.56 | 0.00 | 46 | 1012.2 |
| 20260510123014 | 25 | 136 | 0.0 | 0.0 | 0.00 | 0.56 | 0.00 | 46 | 1012.1 |
| 20260510121513 | 25 | 135 | 0.0 | 0.0 | 0.00 | 0.56 | 0.00 | 46 | 1012.2 |
| 20260510120014 | 25 | 129 | 0.0 | 0.0 | 0.00 | 0.56 | 0.00 | 46 | 1012.0 |
| 20260510114509 | 25 | 129 | 0.0 | 0.0 | 0.00 | 0.56 | 0.00 | 46 | 1011.8 |
| 20260510113007 | 25 | 129 | 0.0 | 0.0 | 0.00 | 0.56 | 0.00 | 46 | 1011.7 |
| 20260510111504 | 25 | 129 | 0.0 | 3.2 | 0.00 | 0.56 | 0.00 | 46 | 1011.5 |
| 20260510110011 | 25 | 129 | 0.0 | 0.0 | 0.00 | 0.56 | 0.00 | 46 | 1011.2 |
| 20260510104504 | 25 | 129 | 0.0 | 0.0 | 0.00 | 0.56 | 0.00 | 46 | 1011.1 |
| 20260510103003 | 25 | 129 | 0.0 | 0.0 | 0.00 | 0.56 | 0.00 | 46 | 1011.3 |
| 20260510101600 | 25 | 129 | 0.0 | 0.0 | 0.00 | 0.56 | 0.00 | 46 | 1011.0 |
| 20260510100059 | 25 | 129 | 0.0 | 0.0 | 0.00 | 0.56 | 0.00 | 46 | 1011.2 |
| 20260510094558 | 25 | 129 | 0.0 | 0.0 | 0.00 | 0.56 | 0.00 | 46 | 1011.0 |
| 20260510093111 | 25 | 129 | 0.0 | 0.0 | 0.00 | 0.56 | 0.00 | 46 | 1011.1 |
| 20260510091557 | 25 | 129 | 0.0 | 0.0 | 0.00 | 0.56 | 0.00 | 46 | 1011.4 |
| 20260510090115 | 25 | 129 | 0.0 | 0.0 | 0.00 | 0.56 | 0.00 | 46 | 1011.4 |
| 20260510084554 | 25 | 129 | 0.0 | 0.0 | 0.00 | 0.56 | 0.00 | 46 | 1011.0 |
| 20260510083109 | 25 | 129 | 0.0 | 0.0 | 0.00 | 0.56 | 0.00 | 46 | 1010.8 |
| 20260510081607 | 25 | 129 | 0.0 | 0.0 | 0.00 | 0.56 | 0.00 | 46 | 1010.9 |
| 20260510080055 | 25 | 129 | 0.0 | 0.0 | 0.00 | 0.56 | 0.00 | 46 | 1010.7 |
| 20260510074554 | 25 | 129 | 0.0 | 0.0 | 0.00 | 0.56 | 0.00 | 46 | 1010.6 |
| 20260510073052 | 24 | 129 | 0.0 | 0.0 | 0.00 | 0.56 | 0.00 | 46 | 1010.5 |
| 20260510071550 | 24 | 129 | 0.0 | 0.0 | 0.00 | 0.56 | 0.00 | 46 | 1010.5 |
| 20260510070049 | 24 | 129 | 0.0 | 0.0 | 0.00 | 0.56 | 0.00 | 46 | 1010.4 |
| 20260510064601 | 24 | 129 | 0.0 | 0.0 | 0.00 | 0.56 | 0.00 | 46 | 1010.3 |
| 20260510063049 | 24 | 129 | 0.0 | 0.0 | 0.00 | 0.56 | 0.00 | 46 | 1010.2 |
| 20260510061547 | 24 | 129 | 0.0 | 0.0 | 0.00 | 0.56 | 0.00 | 46 | 1010.2 |
| 20260510060046 | 24 | 129 | 0.0 | 0.0 | 0.00 | 0.56 | 0.00 | 46 | 1010.3 |
| 20260510054544 | 24 | 129 | 0.0 | 0.0 | 0.00 | 0.56 | 0.00 | 46 | 1010.4 |
| 20260510053042 | 25 | 129 | 0.0 | 0.0 | 0.00 | 0.56 | 0.00 | 46 | 1010.4 |
| 20260510051540 | 25 | 129 | 0.0 | 0.0 | 0.00 | 0.56 | 0.00 | 46 | 1010.5 |
| 20260510050039 | 25 | 129 | 0.0 | 0.0 | 0.00 | 0.56 | 0.00 | 46 | 1010.5 |
| 20260510044551 | 25 | 129 | 0.0 | 0.0 | 0.00 | 0.56 | 0.00 | 46 | 1010.6 |
| 20260510043035 | 25 | 129 | 0.0 | 0.0 | 0.00 | 0.56 | 0.00 | 46 | 1010.7 |
| 20260510041533 | 25 | 129 | 0.0 | 0.0 | 0.00 | 0.56 | 0.00 | 46 | 1010.6 |
| 20260510040029 | 26 | 129 | 0.0 | 0.0 | 0.00 | 0.56 | 0.00 | 46 | 1010.5 |
| 20260510034530 | 26 | 129 | 0.0 | 0.0 | 0.00 | 0.56 | 0.56 | 46 | 1010.3 |
| 20260510033029 | 26 | 129 | 0.0 | 0.0 | 0.00 | 0.56 | 0.56 | 46 | 1010.3 |
| 20260510031529 | 26 | 129 | 0.0 | 0.0 | 0.00 | 0.56 | 0.56 | 46 | 1010.4 |
| 20260510030036 | 26 | 129 | 0.0 | 0.0 | 0.00 | 0.56 | 0.56 | 46 | 1010.3 |
| 20260510024528 | 26 | 129 | 0.0 | 0.0 | 0.00 | 0.56 | 0.56 | 46 | 1010.3 |
| 20260510023028 | 27 | 129 | 0.0 | 0.0 | 0.00 | 0.56 | 0.56 | 46 | 1010.2 |
| 20260510021529 | 27 | 129 | 0.0 | 0.0 | 0.00 | 0.56 | 0.56 | 46 | 1010.3 |
| 20260510020029 | 27 | 129 | 0.0 | 0.0 | 0.00 | 0.56 | 0.56 | 46 | 1010.4 |
| 20260510014528 | 27 | 129 | 0.0 | 0.0 | 0.00 | 0.56 | 0.56 | 46 | 1010.3 |
| 20260510013026 | 27 | 129 | 0.0 | 0.0 | 0.00 | 0.56 | 0.56 | 46 | 1010.2 |
| 20260510011525 | 27 | 129 | 0.0 | 0.0 | 0.00 | 0.56 | 0.56 | 46 | 1010.0 |
| 20260510010025 | 27 | 129 | 0.0 | 0.0 | 0.00 | 0.56 | 0.56 | 46 | 1009.9 |
| 20260510004524 | 27 | 129 | 0.0 | 0.0 | 0.00 | 0.56 | 0.56 | 46 | 1009.8 |
| 20260510003027 | 27 | 129 | 0.0 | 0.0 | 0.00 | 0.56 | 0.56 | 46 | 1009.8 |
| 20260510001523 | 27 | 129 | 0.0 | 0.0 | 0.00 | 0.56 | 0.56 | 46 | 1009.9 |
| 20260510000023 | 28 | 129 | 0.0 | 0.0 | 0.00 | 0.56 | 0.56 | 46 | 1009.6 |
| 20260509234523 | 28 | 129 | 0.0 | 0.0 | 0.00 | 0.56 | 0.56 | 46 | 1009.6 |
| 20260509233025 | 28 | 129 | 0.0 | 0.0 | 0.00 | 0.56 | 0.56 | 46 | 1009.3 |
| 20260509231521 | 28 | 129 | 0.0 | 0.0 | 0.05 | 0.56 | 0.56 | 46 | 1009.4 |
| 20260509230020 | 27 | 129 | 0.0 | 1.6 | 0.18 | 0.56 | 0.56 | 46 | 1009.6 |
| 20260509224521 | 27 | 128 | 0.0 | 0.0 | 0.30 | 0.56 | 0.56 | 46 | 1009.8 |